User: anonymous   Login
Location: Unspecified
(0.0000°N, 0.0000°E)
Time: 19:16:34
(UTC+00:00)
Language:

TBA - TO BE ASSIGNED - Orbit

View from above orbital plane
View from above orbital plane
View from above satellite
View from above satellite

Ground track
Ground track

The orbit is defined by the following mean orbital elements,

1 68746U          26145.58335647 +.00000000 +00000-0 +17575-2 0 00000
2 68746  97.2856   9.2086 0001799  66.0029 207.3592 15.49182527    06
Epoch (UTC): 25 May 2026 14:00:01
Eccentricity: 0.0001799
inclination: 97.2856°
perigee height: 418 km
apogee height: 420 km
right ascension of ascending node: 9.2086°
argument of perigee: 66.0029°
revolutions per day: 15.49182527
mean anomaly at epoch: 207.3592°

The dashed part of the orbit path shows where the satellite is in the earth's shadow,  

DLR